Погода в Красной Поляне

Россия / Самарская область     52°32′53″N   49°33′28″E
темп.,
°C
ветер,
м/с
пор.,
м/с
влажн.,
%
обл.,
%
осадки,
мм/ч
давл.,
гПа
погр.,
м
18 мая, ср
ср1801:00+7ююз35845 0.0 100392
04:00+6зюз4788100 0.0 1003175
07:00+7ююз3695100 1.5 1003420
10:00+7зюз5790100 3.2 1004726
13:00+8з588798 0.3 1005617
16:00+12з696682 0.9 10061181
19:00+11сз598042 0.7 1008761
22:00+8ссз249184 0.7 101095
19 мая, чт
чт1901:00+8зсз11879 0.0 101111
04:00+7ююз2490100 0.0 101198
07:00+9зюз369099 0.4 1012269
10:00+12зсз576511 0.9 10111290
13:00+14зсз795579 0.2 10121840
16:00+13з4662100 0.3 1012842
19:00+12зюз476541 0.1 1011383
22:00+9зюз4977100 0.3 1011158
20 мая, пт
пт2001:00+7сз368880 0.0 1011169
04:00+7ссз3694100 0.0 1010333
07:00+6ссз4682100 0.0 1011386
10:00+10ссз456499 0.0 10111223
13:00+9сз5664100 0.1 1011969
16:00+10ссз7862100 0.6 10111328
19:00+9ссз586110 0.3 10101092
22:00+5сз410760 0.3 1011206
21 мая, сб
сб2101:00+4сз511830 0.0 1010258
04:00+3зсз410891 0.0 1010237
07:00+5сз58791 0.0 1011454
10:00+9сз56597 0.0 10101272
13:00+11зсз3447100 0.1 10091783
16:00+12юз2446100 0.1 10071936
19:00+10ююв1159100 0.1 100524
22:00+8юз0169100 0.1 100419
22 мая, вс
вс2201:00+6св61180100 0.3 1001644
04:00+5ссв91380100 0.8 1000731
07:00+4с9148156 0.0 1000869
10:00+6с11136277 0.0 10001426
13:00+5ссз91367100 0.1 10021481
16:00+7ссз91266100 0.1 10031694
19:00+7ссз8127087 0.1 10041283
22:00+4сз7138210 0.1 1005605